Flag for Russia Weather past 2 weeks in Syktyvkar, Russia

Now
57 °F

Fog.


Feels Like: 57 °F
Forecast: 53 / 64 °F
Wind: No wind

Location: Syktyvkar Airport

Current Time: Aug 22, 2014 at 11:05:56 AM

Latest Report: Aug 22, 2014 at 10:30 AM


Visibility: 2 mi

Pressure: 29.95 "Hg

Humidity: 100%

Dew point: 57 °F

Location of SyktyvkarLocation

Historic Weather in Syktyvkar — Graph

°F

Syktyvkar temperature yesterday

Maximum temperature yesterday: 77 °F (at 3:00 PM)
Minimum temperature yesterday: 52 °F (at 5:00 AM)
Average temperature yesterday: 63 °F

Past Weeks' High & Low Weather Summary

 TemperatureHumidityPressure
High86 °F (Aug 7, 1:30 PM)100% (Aug 9, 9:00 PM)30.12 "Hg (Aug 9, 9:00 PM)
Low48 °F (Aug 12, 4:00 AM)35% (Aug 7, 2:30 PM)29.39 "Hg (Aug 16, 4:30 AM)
Average63 °F80%29.81 "Hg
* Reported Aug 7 9:00 AM — Aug 22 9:30 AM, Syktyvkar, Weather by CustomWeather, © 2014

Note: Actual official high and low records may vary slightly from our data, if they occured in-between our weather recording intervals... More about our weather records

Advertising

Syktyvkar weather history for previous 24 hours

 ConditionsComfort  
Time TempWeatherWind HumidityBarometerVisibility
9:30 AM
Aug 22
57 °FFog.3 mph94%29.92 "Hg1 mi
9:00 AM55 °FFog.3 mph100%29.92 "Hg0 mi
8:30 AM55 °FFog.3 mph100%29.92 "Hg0 mi
8:00 AM55 °FFog.3 mph94%29.92 "Hg0 mi
7:30 AM54 °FFog.3 mph100%29.92 "Hg0 mi
7:00 AM54 °FFog.3 mph100%29.92 "Hg0 mi
6:30 AM54 °FFog.3 mph94%29.92 "Hg0 mi
6:00 AM54 °FFog.3 mph94%29.92 "Hg0 mi
5:30 AM52 °FFog.3 mph100%29.92 "Hg0 mi
5:00 AM54 °FFog.1 mph94%29.92 "Hg0 mi
4:30 AM54 °FFog.3 mph94%29.89 "Hg0 mi
4:00 AM54 °FFog.3 mph100%29.89 "Hg0 mi
3:30 AM54 °FFog.3 mph100%29.89 "Hg0 mi
3:00 AM54 °FFog.3 mph100%29.89 "Hg0 mi
2:30 AM55 °FFog.3 mph94%29.89 "Hg0 mi
2:00 AM55 °FFog.3 mph100%29.89 "Hg0 mi
1:30 AM55 °FFog.3 mph100%29.89 "Hg0 mi
1:00 AM57 °FFog.3 mph94%29.89 "Hg0 mi
12:30 AM57 °FFog.3 mph94%29.89 "Hg0 mi
12:00 AM57 °FFog.3 mph100%29.89 "Hg1 mi
11:30 PM
Aug 21
59 °FFog.6 mph94%29.89 "Hg0 mi
11:00 PM59 °FFog.6 mph94%29.89 "Hg1 mi
10:30 PM59 °FFog.6 mph94%29.89 "Hg3 mi
10:00 PM59 °FFog.6 mph94%29.89 "Hg3 mi
9:30 PM59 °FFog.3 mph94%29.89 "Hg3 mi
9:00 PM59 °FCloudy.3 mph94%29.89 "Hg4 mi
8:30 PM61 °FCloudy.6 mph94%29.89 "Hg5 mi
8:00 PM61 °FCloudy.6 mph94%29.89 "HgN/A
7:30 PM61 °FCloudy.6 mph94%29.89 "HgN/A
7:00 PM61 °FMostly cloudy.6 mph94%29.89 "Hg6 mi
6:30 PM61 °FMostly cloudy.3 mph94%29.89 "HgN/A
6:00 PM61 °FSprinkles. Cloudy.6 mph94%29.89 "Hg4 mi
5:30 PM61 °FMostly cloudy.3 mph94%29.92 "Hg6 mi
5:00 PM61 °FMostly cloudy.1 mph94%29.89 "HgN/A
4:30 PM61 °FThundershowers. Mostly cloudy.No wind88%29.89 "HgN/A
4:00 PM63 °FThunderstorms. Mostly cloudy.8 mph77%29.92 "Hg3 mi
3:30 PM75 °FMore clouds than sun.8 mph54%29.86 "HgN/A
3:00 PM77 °FOvercast.10 mph51%29.86 "HgN/A
2:30 PM75 °FOvercast.8 mph54%29.86 "HgN/A
2:00 PM75 °FOvercast.8 mph50%29.89 "HgN/A
1:30 PM75 °FOvercast.10 mph50%29.89 "HgN/A
1:00 PM75 °FOvercast.8 mph50%29.89 "HgN/A
12:30 PM75 °FOvercast.8 mph50%29.92 "HgN/A
12:00 PM73 °FSunny.8 mph53%29.92 "Hg10 mi
11:30 AM73 °FSunny.8 mph53%29.92 "Hg10 mi
11:00 AM72 °FSunny.8 mph57%29.92 "Hg10 mi
Weather by CustomWeather, © 2014

See weather overviewHow to use our weather pages